Concord, NH

12:26 AM EST on February 08, 2016 (GMT -0500)
Concord Municipal

Weather History for KCON - June, 2013

Change the Weather History Date:

Saturday, June 15, 2013

  Actual Average Record
Temperature  
Mean Temperature 63 °F 65 °F  
Max Temperature 78 °F 77 °F 97 °F (1945)
Min Temperature 47 °F 53 °F 38 °F (1997)
Degree Days  
Heating Degree Days 2 3  
Month to date heating degree days 55 61  
Since 1 June heating degree days 55 61  
Since 1 July heating degree days 6828 7211  
Cooling Degree Days 0 3  
Month to date cooling degree days 29 29  
Year to date cooling degree days 50 47  
Since 1 June cooling degree days 29 29  
Growing Degree Days 12 (Base 50)    
Moisture  
Dew Point 45 °F    
Average Humidity 63    
Maximum Humidity 100    
Minimum Humidity 25    
Precipitation  
Precipitation 0.00 in 0.13 in 2.06 in (1960)
Month to date precipitation 4.68 1.98  
Year to date precipitation 17.44 17.64  
Snow  
Snow 0.00 in 0.00 in 0.00 in (2002)
Month to date snowfall 0.0 0.0  
Since 1 June snowfall 0.0 0.0  
Since 1 July snowfall 83.4 61.4  
Snow Depth 0.00 in    
Sea Level Pressure  
Sea Level Pressure 29.88 in    
Wind  
Wind Speed 6 mph (WNW)    
Max Wind Speed 17 mph    
Max Gust Speed 23 mph    
Visibility 10 miles    
Events      
T = Trace of Precipitation, MM = Missing Value Source: NWS Daily Summary

Daily Weather History Graph

Daily Weather History Graph

Search for Another Location

Airport or City:

Trip Planner

Search our weather history database for the weather conditions in past years. The results will help you decide how hot, cold, wet, or windy it might be!

Date:

Astronomy

Jun. 15, 2013 Rise Set
Actual Time 5:05 AM EDT 8:27 PM EDT
Civil Twilight 4:30 AM EDT 9:03 PM EDT
Nautical Twilight 3:43 AM EDT 9:49 PM EDT
Astronomical Twilight 2:46 AM EDT 10:47 PM EDT
Moon 11:47 AM EDT (6/15) No Moon Set
Length of Visible Light 16h 33m
Length of Day
15h 22m
Waxing Crescent, 39% of the Moon is Illuminated
Jun 15
Waxing Crescent
Jun 16
First Quarter
Jun 23
Full
Jun 30
Last Quarter
Jul 8
New

Hourly Weather History & Observations

Time (EDT) Temp. Dew Point Humidity Pressure Visibility Wind Dir Wind Speed Gust Speed Precip Events Conditions
12:51 AM 52.0 °F 51.1 °F 97% 29.80 in 10.0 mi Calm Calm - N/A   Clear
1:51 AM 52.0 °F 51.1 °F 97% 29.81 in 10.0 mi Calm Calm - N/A   Clear
2:51 AM 55.0 °F 51.1 °F 86% 29.82 in 10.0 mi NNW 3.5 mph - N/A   Clear
3:51 AM 53.1 °F 48.9 °F 86% 29.84 in 10.0 mi NNW 4.6 mph - N/A   Clear
4:51 AM 52.0 °F 48.0 °F 86% 29.85 in 10.0 mi Calm Calm - N/A   Clear
5:51 AM 48.9 °F 46.0 °F 90% 29.88 in 10.0 mi Calm Calm - N/A   Clear
6:51 AM 59.0 °F 48.9 °F 69% 29.90 in 10.0 mi NW 3.5 mph - N/A   Clear
7:51 AM 63.0 °F 45.0 °F 52% 29.91 in 10.0 mi NW 9.2 mph - N/A   Clear
8:51 AM 66.0 °F 44.1 °F 45% 29.93 in 10.0 mi WNW 6.9 mph - N/A   Clear
9:51 AM 68.0 °F 42.1 °F 39% 29.93 in 10.0 mi NW 6.9 mph - N/A   Clear
10:51 AM 71.1 °F 42.1 °F 35% 29.92 in 10.0 mi West 10.4 mph 16.1 mph N/A   Clear
11:51 AM 73.0 °F 39.9 °F 30% 29.92 in 10.0 mi NNW 10.4 mph 16.1 mph N/A   Clear
12:51 PM 75.0 °F 39.0 °F 27% 29.92 in 10.0 mi NW 11.5 mph - N/A   Clear
1:51 PM 75.0 °F 39.9 °F 28% 29.90 in 10.0 mi West 13.8 mph 18.4 mph N/A   Partly Cloudy
2:51 PM 77.0 °F 39.9 °F 26% 29.89 in 10.0 mi West 8.1 mph - N/A   Clear
3:51 PM 78.1 °F 41.0 °F 27% 29.87 in 10.0 mi WNW 6.9 mph - N/A   Clear
4:51 PM 75.9 °F 37.9 °F 25% 29.87 in 10.0 mi WNW 11.5 mph - N/A   Clear
5:51 PM 75.9 °F 39.9 °F 27% 29.87 in 10.0 mi West 9.2 mph - N/A   Partly Cloudy
6:51 PM 75.0 °F 41.0 °F 29% 29.88 in 10.0 mi West 8.1 mph - N/A   Partly Cloudy
7:51 PM 71.1 °F 43.0 °F 36% 29.88 in 10.0 mi West 3.5 mph - N/A   Clear
8:51 PM 59.0 °F 51.1 °F 75% 29.89 in 10.0 mi Calm Calm - N/A   Clear
9:51 PM 57.9 °F 51.1 °F 78% 29.91 in 10.0 mi Calm Calm - N/A   Mostly Cloudy
10:51 PM 54.0 °F 51.1 °F 90% 29.92 in 10.0 mi Calm Calm - N/A   Clear
11:51 PM 54.0 °F 50.0 °F 86% 29.93 in 10.0 mi NE 3.5 mph - N/A   Clear